Facebook Twitter

Wetterstation Glücksburg-Meierwik

Messwerte
  Temperatur Wetter Niederschlag Luftdruck Wind
Fr, 14:20 Uhr 10° - - 1009 hPa 39 km/h W
Fr, 14:00 Uhr 8° - - 1009 hPa 43 km/h W

Böen 50 km/h
Fr, 13:20 Uhr 9° - - 1008 hPa 40 km/h W
Fr, 13:00 Uhr 9° - - 1008.4 hPa 40 km/h NW

Böen 47 km/h
Fr, 12:20 Uhr 8° - - 1008 hPa 26 km/h W
Fr, 12:00 Uhr 8° - - 1008.1 hPa 22 km/h NW
Fr, 11:20 Uhr 7° - - 1007 hPa 14 km/h W
Fr, 11:00 Uhr 5° - - 1007.8 hPa 25 km/h W
Fr, 10:20 Uhr 5° - - 1007 hPa 16 km/h W
Fr, 10:00 Uhr 5° - - 1007 hPa 25 km/h W
Fr, 09:20 Uhr 5° - - 1006 hPa 19 km/h W
Fr, 09:00 Uhr 4° - - 1006.3 hPa 22 km/h NW
Fr, 08:20 Uhr 4° - - 1005 hPa 23 km/h NW
Fr, 08:00 Uhr 4° - 0.8 mm 1005.7 hPa 25 km/h W
Fr, 07:20 Uhr 4° - - 1005 hPa 26 km/h W
Fr, 07:00 Uhr 4° - - 1005.3 hPa 25 km/h W
Fr, 06:20 Uhr 4° - - 1004 hPa 29 km/h W
Fr, 06:00 Uhr 4° - - 1004.8 hPa 22 km/h W
Fr, 05:20 Uhr 4° - - 1004 hPa 19 km/h W
Fr, 05:00 Uhr 3° - - 1004.4 hPa 14 km/h W

Alle Zeitangaben MESZ